| time (UTC) | temp F | wind direction | speed knots | gust knots | rain 1hr in | rain 24hr in | rain mn in | humidity % | barometer mb |
| 20260905185550 | 75 | 57 | 0.9 | 6.1 | 0.00 | 0.00 | 0.00 | 62 | 1009.6 |
| 20260905185050 | 75 | 80 | 1.7 | 6.1 | 0.00 | 0.00 | 0.00 | 64 | 1009.4 |
| 20260905184555 | 75 | 187 | 0.9 | 4.3 | 0.00 | 0.00 | 0.00 | 65 | 1009.5 |
| 20260905184053 | 75 | 95 | 0.9 | 4.3 | 0.00 | 0.00 | 0.00 | 63 | 1009.6 |
| 20260905183548 | 75 | 124 | 1.7 | 4.3 | 0.00 | 0.00 | 0.00 | 64 | 1009.4 |
| 20260905183048 | 75 | 75 | 1.7 | 5.2 | 0.00 | 0.00 | 0.00 | 63 | 1009.4 |
| 20260905182547 | 75 | 124 | 1.7 | 5.2 | 0.00 | 0.00 | 0.00 | 67 | 1009.4 |
| 20260905182047 | 75 | 105 | 1.7 | 7.0 | 0.00 | 0.00 | 0.00 | 67 | 1009.5 |
| 20260905181549 | 75 | 324 | 1.7 | 7.0 | 0.00 | 0.00 | 0.00 | 64 | 1009.6 |
| 20260905181046 | 75 | 61 | 1.7 | 6.1 | 0.00 | 0.00 | 0.00 | 65 | 1009.5 |
| 20260905180547 | 74 | 81 | 0.9 | 6.1 | 0.00 | 0.00 | 0.00 | 67 | 1009.5 |
| 20260905180045 | 74 | 81 | 0.9 | 6.1 | 0.00 | 0.00 | 0.00 | 66 | 1009.6 |
| 20260905175544 | 74 | 70 | 1.7 | 6.1 | 0.00 | 0.00 | 0.00 | 65 | 1009.6 |
| 20260905175043 | 75 | 71 | 1.7 | 6.1 | 0.00 | 0.00 | 0.00 | 66 | 1009.5 |
| 20260905174542 | 75 | 110 | 0.9 | 6.1 | 0.00 | 0.00 | 0.00 | 65 | 1009.6 |
| 20260905174042 | 75 | 85 | 0.9 | 3.5 | 0.00 | 0.00 | 0.00 | 64 | 1009.6 |
| 20260905173541 | 75 | 115 | 0.9 | 4.3 | 0.00 | 0.00 | 0.00 | 67 | 1009.4 |
| 20260905173046 | 75 | 76 | 1.7 | 4.3 | 0.00 | 0.00 | 0.00 | 68 | 1009.4 |
| 20260905172539 | 74 | 107 | 1.7 | 6.1 | 0.00 | 0.00 | 0.00 | 68 | 1009.4 |
| 20260905172037 | 74 | 344 | 1.7 | 6.1 | 0.00 | 0.00 | 0.00 | 68 | 1009.4 |
| 20260905171538 | 73 | 69 | 1.7 | 7.0 | 0.00 | 0.00 | 0.00 | 67 | 1009.3 |
| 20260905171037 | 73 | 69 | 2.6 | 7.0 | 0.00 | 0.00 | 0.00 | 67 | 1009.4 |
| 20260905170535 | 73 | 82 | 0.9 | 4.3 | 0.00 | 0.00 | 0.00 | 66 | 1009.5 |
| 20260905170036 | 74 | 47 | 0.0 | 6.1 | 0.00 | 0.00 | 0.00 | 65 | 1009.4 |
| 20260905165533 | 74 | 81 | 0.9 | 7.8 | 0.00 | 0.00 | 0.00 | 66 | 1009.4 |
| 20260905165035 | 74 | 103 | 0.9 | 6.1 | 0.00 | 0.00 | 0.00 | 67 | 1009.4 |
| 20260905164531 | 73 | 222 | 0.9 | 4.3 | 0.00 | 0.00 | 0.00 | 67 | 1009.3 |
| 20260905164033 | 72 | 96 | 0.9 | 2.6 | 0.00 | 0.00 | 0.00 | 69 | 1009.4 |
| 20260905163528 | 72 | 61 | 0.9 | 3.5 | 0.00 | 0.00 | 0.00 | 72 | 1009.3 |
| 20260905163027 | 72 | 96 | 0.0 | 5.2 | 0.00 | 0.00 | 0.00 | 69 | 1009.4 |
| 20260905162526 | 71 | 62 | 2.6 | 5.2 | 0.00 | 0.00 | 0.00 | 69 | 1009.4 |
| 20260905162024 | 71 | 70 | 1.7 | 6.1 | 0.00 | 0.00 | 0.00 | 68 | 1009.5 |
| 20260905161524 | 71 | 176 | 0.0 | 7.0 | 0.00 | 0.00 | 0.00 | 70 | 1009.5 |
| 20260905161028 | 71 | 143 | 0.9 | 7.0 | 0.00 | 0.00 | 0.00 | 71 | 1009.6 |
| 20260905160523 | 71 | 109 | 0.9 | 4.3 | 0.00 | 0.00 | 0.00 | 72 | 1009.6 |
| 20260905160022 | 71 | 318 | 1.7 | 6.1 | 0.00 | 0.00 | 0.00 | 70 | 1009.6 |
| 20260905155522 | 71 | 261 | 0.9 | 6.1 | 0.00 | 0.00 | 0.00 | 72 | 1009.6 |
| 20260905155020 | 71 | 273 | 0.9 | 6.1 | 0.00 | 0.00 | 0.00 | 73 | 1009.7 |
| 20260905154520 | 71 | 112 | 0.9 | 2.6 | 0.00 | 0.00 | 0.00 | 74 | 1009.6 |
| 20260905154019 | 71 | 117 | 0.9 | 2.6 | 0.00 | 0.00 | 0.00 | 73 | 1009.6 |
| 20260905153518 | 70 | 55 | 0.9 | 4.3 | 0.00 | 0.00 | 0.00 | 75 | 1009.6 |
| 20260905153025 | 70 | 349 | 1.7 | 4.3 | 0.00 | 0.00 | 0.00 | 73 | 1009.7 |
| 20260905152518 | 70 | 101 | 0.0 | 4.3 | 0.00 | 0.00 | 0.00 | 75 | 1009.7 |
| 20260905152015 | 70 | 97 | 1.7 | 4.3 | 0.00 | 0.00 | 0.00 | 76 | 1009.7 |
| 20260905151514 | 69 | 56 | 0.9 | 3.5 | 0.00 | 0.00 | 0.00 | 76 | 1009.7 |
| 20260905151016 | 69 | 90 | 0.9 | 3.5 | 0.00 | 0.00 | 0.00 | 77 | 1009.8 |
| 20260905150516 | 69 | 138 | 0.9 | 5.2 | 0.00 | 0.00 | 0.00 | 76 | 1009.7 |
| 20260905150019 | 69 | 22 | 0.9 | 7.0 | 0.00 | 0.00 | 0.00 | 76 | 1009.7 |
| 20260905145511 | 69 | 355 | 1.7 | 7.0 | 0.00 | 0.00 | 0.00 | 77 | 1009.7 |
| 20260905145009 | 69 | 79 | 0.9 | 4.3 | 0.00 | 0.00 | 0.00 | 79 | 1009.7 |
| 20260905144513 | 68 | 94 | 0.0 | 4.3 | 0.00 | 0.00 | 0.00 | 80 | 1009.7 |
| 20260905144007 | 68 | 343 | 0.9 | 3.5 | 0.00 | 0.00 | 0.00 | 81 | 1009.7 |
| 20260905143506 | 68 | 111 | 0.0 | 4.3 | 0.00 | 0.00 | 0.00 | 81 | 1009.7 |
| 20260905143006 | 68 | 321 | 0.0 | 4.3 | 0.00 | 0.00 | 0.00 | 80 | 1009.7 |
| 20260905142504 | 67 | 344 | 1.7 | 4.3 | 0.00 | 0.00 | 0.00 | 81 | 1009.7 |
| 20260905142004 | 67 | 275 | 0.9 | 5.2 | 0.00 | 0.00 | 0.00 | 81 | 1009.8 |
| 20260905141504 | 67 | 298 | 2.6 | 5.2 | 0.00 | 0.00 | 0.00 | 82 | 1009.8 |
| 20260905141004 | 67 | 256 | 0.9 | 3.5 | 0.00 | 0.00 | 0.00 | 83 | 1009.8 |
| 20260905140601 | 67 | 343 | 0.0 | 4.3 | 0.00 | 0.00 | 0.00 | 83 | 1009.7 |
| 20260905135559 | 66 | 257 | 0.9 | 4.3 | 0.00 | 0.00 | 0.00 | 84 | 1009.6 |
| 20260905135057 | 66 | 281 | 1.7 | 3.5 | 0.00 | 0.00 | 0.00 | 86 | 1009.7 |
| 20260905134557 | 66 | 296 | 0.0 | 3.5 | 0.00 | 0.00 | 0.00 | 86 | 1009.7 |
| 20260905134059 | 65 | 252 | 0.9 | 3.5 | 0.00 | 0.00 | 0.00 | 86 | 1009.6 |
| 20260905133553 | 65 | 10 | 0.0 | 4.3 | 0.00 | 0.00 | 0.00 | 86 | 1009.5 |
| 20260905133054 | 65 | 284 | 2.6 | 4.3 | 0.00 | 0.00 | 0.00 | 87 | 1009.5 |
| 20260905132552 | 64 | 234 | 0.9 | 3.5 | 0.00 | 0.00 | 0.00 | 87 | 1009.4 |
| 20260905132051 | 64 | 236 | 1.7 | 4.3 | 0.00 | 0.00 | 0.00 | 87 | 1009.4 |
| 20260905131601 | 64 | 223 | 2.6 | 4.3 | 0.00 | 0.00 | 0.00 | 87 | 1009.3 |
| 20260905131049 | 63 | 215 | 0.9 | 3.5 | 0.00 | 0.00 | 0.00 | 88 | 1009.3 |
| 20260905130549 | 63 | 315 | 1.7 | 3.5 | 0.00 | 0.00 | 0.00 | 88 | 1009.3 |
| 20260905130048 | 63 | 222 | 0.9 | 5.2 | 0.00 | 0.00 | 0.00 | 88 | 1009.2 |
| 20260905125546 | 63 | 295 | 1.7 | 5.2 | 0.00 | 0.00 | 0.00 | 88 | 1009.2 |
| 20260905125046 | 63 | 284 | 1.7 | 3.5 | 0.00 | 0.00 | 0.00 | 89 | 1009.1 |
| 20260905124545 | 63 | 234 | 1.7 | 3.5 | 0.00 | 0.00 | 0.00 | 89 | 1009.1 |
| 20260905124045 | 63 | 257 | 0.9 | 2.6 | 0.00 | 0.00 | 0.00 | 89 | 1009.1 |
| 20260905123543 | 63 | 268 | 0.0 | 4.3 | 0.00 | 0.00 | 0.00 | 89 | 1009.1 |
| 20260905123102 | 62 | 252 | 2.6 | 5.2 | 0.00 | 0.00 | 0.00 | 89 | 1009.0 |
| 20260905122545 | 62 | 291 | 1.7 | 5.2 | 0.00 | 0.00 | 0.00 | 90 | 1008.9 |
| 20260905122043 | 62 | 240 | 1.7 | 5.2 | 0.00 | 0.00 | 0.00 | 90 | 1008.9 |
| 20260905121540 | 62 | 242 | 1.7 | 5.2 | 0.00 | 0.00 | 0.00 | 90 | 1008.8 |
| 20260905121040 | 62 | 298 | 1.7 | 4.3 | 0.00 | 0.00 | 0.00 | 91 | 1008.8 |
| 20260905120540 | 62 | 289 | 2.6 | 6.1 | 0.00 | 0.00 | 0.00 | 91 | 1008.8 |
| 20260905120040 | 62 | 224 | 1.7 | 6.1 | 0.00 | 0.00 | 0.00 | 91 | 1008.7 |
| 20260905115538 | 61 | 290 | 1.7 | 5.2 | 0.00 | 0.00 | 0.00 | 91 | 1008.7 |
| 20260905115041 | 61 | 246 | 1.7 | 6.1 | 0.00 | 0.00 | 0.00 | 92 | 1008.6 |
| 20260905114540 | 61 | 244 | 1.7 | 6.1 | 0.00 | 0.00 | 0.00 | 92 | 1008.6 |
| 20260905114036 | 61 | 280 | 2.6 | 7.0 | 0.00 | 0.00 | 0.00 | 92 | 1008.7 |
| 20260905113537 | 61 | 260 | 2.6 | 7.0 | 0.00 | 0.00 | 0.00 | 92 | 1008.6 |
| 20260905113035 | 61 | 246 | 0.9 | 5.2 | 0.00 | 0.00 | 0.00 | 92 | 1008.6 |
| 20260905112534 | 61 | 288 | 2.6 | 5.2 | 0.00 | 0.00 | 0.00 | 92 | 1008.5 |
| 20260905112033 | 60 | 271 | 1.7 | 5.2 | 0.00 | 0.00 | 0.00 | 92 | 1008.6 |
| 20260905111536 | 60 | 269 | 1.7 | 5.2 | 0.00 | 0.00 | 0.00 | 92 | 1008.6 |
| 20260905111035 | 60 | 265 | 1.7 | 4.3 | 0.00 | 0.00 | 0.00 | 92 | 1008.6 |
| 20260905110536 | 60 | 264 | 1.7 | 4.3 | 0.00 | 0.00 | 0.00 | 92 | 1008.5 |
| 20260905110034 | 60 | 198 | 1.7 | 6.1 | 0.00 | 0.00 | 0.00 | 92 | 1008.4 |
| 20260905105531 | 60 | 236 | 2.6 | 6.1 | 0.00 | 0.00 | 0.00 | 92 | 1008.4 |
| 20260905105031 | 60 | 262 | 1.7 | 7.0 | 0.00 | 0.00 | 0.00 | 92 | 1008.3 |
| 20260905104530 | 60 | 279 | 1.7 | 5.2 | 0.00 | 0.00 | 0.00 | 92 | 1008.3 |
| 20260905104029 | 60 | 321 | 1.7 | 5.2 | 0.00 | 0.00 | 0.00 | 91 | 1008.3 |
| 20260905103529 | 59 | 298 | 0.9 | 3.5 | 0.00 | 0.00 | 0.00 | 91 | 1008.3 |
| 20260905103040 | 59 | 292 | 0.9 | 3.5 | 0.00 | 0.00 | 0.00 | 91 | 1008.3 |
| 20260905102528 | 59 | 238 | 0.0 | 2.6 | 0.00 | 0.00 | 0.00 | 90 | 1008.2 |
| 20260905102029 | 59 | 218 | 0.0 | 3.5 | 0.00 | 0.00 | 0.00 | 90 | 1008.2 |
| 20260905101528 | 60 | 312 | 0.9 | 3.5 | 0.00 | 0.00 | 0.00 | 90 | 1008.1 |
| 20260905101027 | 60 | 290 | 0.9 | 3.5 | 0.00 | 0.00 | 0.00 | 90 | 1008.1 |
| 20260905100527 | 60 | 227 | 0.9 | 4.3 | 0.00 | 0.00 | 0.00 | 89 | 1008.1 |
| 20260905100033 | 60 | 309 | 0.9 | 2.6 | 0.00 | 0.00 | 0.00 | 89 | 1008.1 |
| 20260905095526 | 60 | 261 | 0.9 | 3.5 | 0.00 | 0.00 | 0.00 | 89 | 1008.1 |
| 20260905095027 | 60 | 233 | 1.7 | 3.5 | 0.00 | 0.00 | 0.00 | 89 | 1008.0 |
| 20260905094526 | 60 | 292 | 0.0 | 2.6 | 0.00 | 0.00 | 0.00 | 89 | 1008.0 |
| 20260905094026 | 60 | 292 | 0.0 | 4.3 | 0.00 | 0.00 | 0.00 | 89 | 1008.1 |
| 20260905093525 | 61 | 325 | 0.9 | 5.2 | 0.00 | 0.00 | 0.00 | 89 | 1007.9 |
| 20260905093026 | 61 | 236 | 2.6 | 5.2 | 0.00 | 0.00 | 0.00 | 89 | 1007.9 |
| 20260905092525 | 61 | 256 | 3.5 | 5.2 | 0.00 | 0.00 | 0.00 | 88 | 1008.0 |
| 20260905092025 | 61 | 300 | 1.7 | 5.2 | 0.00 | 0.00 | 0.00 | 88 | 1007.9 |
| 20260905091525 | 61 | 257 | 1.7 | 4.3 | 0.00 | 0.00 | 0.00 | 88 | 1007.9 |
| 20260905091026 | 61 | 284 | 0.9 | 4.3 | 0.00 | 0.00 | 0.00 | 88 | 1007.8 |
| 20260905090524 | 61 | 286 | 0.9 | 4.3 | 0.00 | 0.00 | 0.00 | 88 | 1007.9 |
| 20260905090027 | 61 | 245 | 1.7 | 5.2 | 0.00 | 0.00 | 0.00 | 88 | 1007.7 |
| 20260905085524 | 61 | 314 | 2.6 | 6.1 | 0.00 | 0.00 | 0.00 | 88 | 1007.8 |
| 20260905085025 | 61 | 281 | 0.9 | 7.0 | 0.00 | 0.00 | 0.00 | 88 | 1007.7 |
| 20260905084524 | 61 | 299 | 1.7 | 7.0 | 0.00 | 0.00 | 0.00 | 88 | 1007.7 |
| 20260905084024 | 61 | 265 | 1.7 | 5.2 | 0.00 | 0.00 | 0.00 | 88 | 1007.7 |
| 20260905083526 | 61 | 269 | 1.7 | 6.1 | 0.00 | 0.00 | 0.00 | 88 | 1007.7 |
| 20260905083023 | 61 | 284 | 2.6 | 6.1 | 0.00 | 0.00 | 0.00 | 88 | 1007.7 |
| 20260905082522 | 61 | 305 | 1.7 | 7.8 | 0.00 | 0.00 | 0.00 | 88 | 1007.7 |
| 20260905082022 | 61 | 285 | 3.5 | 7.8 | 0.00 | 0.00 | 0.00 | 88 | 1007.8 |
| 20260905081522 | 61 | 306 | 1.7 | 6.1 | 0.00 | 0.00 | 0.00 | 87 | 1007.8 |
| 20260905081026 | 61 | 217 | 1.7 | 5.2 | 0.00 | 0.00 | 0.00 | 87 | 1007.7 |
| 20260905080521 | 61 | 223 | 2.6 | 7.0 | 0.00 | 0.00 | 0.00 | 87 | 1007.8 |
| 20260905080028 | 61 | 263 | 2.6 | 7.0 | 0.00 | 0.00 | 0.00 | 87 | 1007.7 |
| 20260905075521 | 61 | 269 | 1.7 | 5.2 | 0.00 | 0.00 | 0.00 | 87 | 1007.7 |
| 20260905075020 | 61 | 233 | 1.7 | 4.3 | 0.00 | 0.00 | 0.00 | 87 | 1007.8 |
| 20260905074520 | 61 | 292 | 2.6 | 5.2 | 0.00 | 0.00 | 0.00 | 87 | 1007.8 |
| 20260905074020 | 61 | 306 | 1.7 | 5.2 | 0.00 | 0.00 | 0.00 | 87 | 1007.8 |
| 20260905073520 | 61 | 294 | 1.7 | 5.2 | 0.00 | 0.00 | 0.00 | 87 | 1007.8 |
| 20260905073024 | 61 | 288 | 2.6 | 5.2 | 0.00 | 0.00 | 0.00 | 88 | 1007.8 |
| 20260905072523 | 61 | 248 | 0.9 | 5.2 | 0.00 | 0.00 | 0.00 | 88 | 1007.8 |
| 20260905072020 | 61 | 310 | 1.7 | 4.3 | 0.00 | 0.00 | 0.00 | 89 | 1007.8 |
| 20260905071520 | 61 | 346 | 1.7 | 4.3 | 0.00 | 0.00 | 0.00 | 89 | 1007.8 |
| 20260905071016 | 61 | 270 | 1.7 | 4.3 | 0.00 | 0.00 | 0.00 | 89 | 1007.9 |
| 20260905070516 | 61 | 244 | 1.7 | 6.1 | 0.00 | 0.00 | 0.00 | 90 | 1008.0 |
| 20260905070026 | 61 | 234 | 1.7 | 6.1 | 0.00 | 0.00 | 0.00 | 90 | 1008.0 |
| 20260905065515 | 60 | 294 | 3.5 | 6.1 | 0.00 | 0.00 | 0.00 | 90 | 1008.1 |
| 20260905065015 | 60 | 236 | 1.7 | 7.0 | 0.00 | 0.00 | 0.00 | 90 | 1008.1 |
| 20260905064515 | 60 | 287 | 2.6 | 4.3 | 0.00 | 0.00 | 0.00 | 90 | 1008.1 |
| 20260905064015 | 60 | 304 | 0.9 | 5.2 | 0.00 | 0.00 | 0.00 | 90 | 1008.1 |
| 20260905063519 | 60 | 251 | 1.7 | 5.2 | 0.00 | 0.00 | 0.00 | 90 | 1008.1 |
| 20260905063014 | 60 | 225 | 1.7 | 5.2 | 0.00 | 0.00 | 0.00 | 90 | 1008.1 |
| 20260905062513 | 60 | 301 | 1.7 | 5.2 | 0.00 | 0.00 | 0.00 | 90 | 1008.1 |
| 20260905062012 | 60 | 319 | 1.7 | 5.2 | 0.00 | 0.00 | 0.00 | 89 | 1008.1 |
| 20260905061514 | 60 | 275 | 1.7 | 5.2 | 0.00 | 0.00 | 0.00 | 89 | 1008.2 |
| 20260905061017 | 60 | 257 | 1.7 | 3.5 | 0.00 | 0.00 | 0.00 | 89 | 1008.2 |
| 20260905060511 | 60 | 240 | 0.9 | 3.5 | 0.00 | 0.00 | 0.00 | 89 | 1008.2 |
| 20260905060033 | 60 | 285 | 1.7 | 3.5 | 0.00 | 0.00 | 0.00 | 88 | 1008.4 |
| 20260905055510 | 60 | 241 | 0.0 | 1.7 | 0.00 | 0.00 | 0.00 | 88 | 1008.3 |
| 20260905055013 | 60 | 241 | 0.0 | 0.9 | 0.00 | 0.00 | 0.00 | 88 | 1008.3 |
| 20260905054510 | 60 | 241 | 0.0 | 1.7 | 0.00 | 0.00 | 0.00 | 88 | 1008.3 |
| 20260905054009 | 61 | 241 | 0.0 | 1.7 | 0.00 | 0.00 | 0.00 | 88 | 1008.3 |
| 20260905053508 | 61 | 241 | 0.0 | 2.6 | 0.00 | 0.00 | 0.00 | 88 | 1008.3 |
| 20260905053008 | 61 | 241 | 0.9 | 2.6 | 0.00 | 0.00 | 0.00 | 88 | 1008.4 |
| 20260905052507 | 61 | 241 | 1.7 | 2.6 | 0.00 | 0.00 | 0.00 | 88 | 1008.4 |
| 20260905052012 | 61 | 241 | 0.0 | 2.6 | 0.00 | 0.00 | 0.00 | 88 | 1008.4 |
| 20260905051508 | 61 | 241 | 0.0 | 2.6 | 0.00 | 0.00 | 0.00 | 88 | 1008.4 |
| 20260905051006 | 61 | 241 | 0.0 | 0.0 | 0.00 | 0.00 | 0.00 | 88 | 1008.4 |
| 20260905050505 | 61 | 241 | 0.0 | 1.7 | 0.00 | 0.00 | 0.00 | 88 | 1008.5 |
| 20260905050006 | 61 | 241 | 0.0 | 1.7 | 0.00 | 0.00 | 0.00 | 88 | 1008.4 |
| 20260905045504 | 61 | 241 | 0.9 | 3.5 | 0.00 | 0.00 | 0.00 | 87 | 1008.5 |
| 20260905045006 | 61 | 241 | 0.9 | 3.5 | 0.00 | 0.00 | 0.00 | 87 | 1008.6 |
| 20260905044508 | 61 | 275 | 0.9 | 4.3 | 0.00 | 0.00 | 0.00 | 87 | 1008.5 |
| 20260905044003 | 62 | 240 | 1.7 | 2.6 | 0.00 | 0.00 | 0.00 | 87 | 1008.3 |
| 20260905043502 | 62 | 258 | 0.9 | 2.6 | 0.00 | 0.00 | 0.00 | 86 | 1008.2 |
| 20260905043112 | 62 | 258 | 0.9 | 2.6 | 0.00 | 0.00 | 0.00 | 86 | 1008.4 |
| 20260905042559 | 62 | 257 | 0.0 | 1.7 | 0.00 | 0.00 | 0.00 | 86 | 1008.4 |
| 20260905042059 | 62 | 257 | 0.9 | 1.7 | 0.00 | 0.00 | 0.00 | 85 | 1008.5 |
| 20260905041558 | 62 | 257 | 0.0 | 1.7 | 0.00 | 0.00 | 0.00 | 85 | 1008.6 |
| 20260905041100 | 63 | 258 | 0.0 | 0.9 | 0.00 | 0.00 | 0.00 | 85 | 1008.7 |
| 20260905040556 | 63 | 257 | 0.0 | 0.9 | 0.00 | 0.00 | 0.00 | 85 | 1008.6 |
| 20260905040056 | 63 | 257 | 0.0 | 0.9 | 0.00 | 0.00 | 0.00 | 84 | 1008.5 |
| 20260905035556 | 63 | 257 | 0.0 | 0.0 | 0.00 | 0.00 | 0.00 | 84 | 1008.5 |
| 20260905035055 | 63 | 258 | 0.0 | 0.0 | 0.00 | 0.00 | 0.00 | 84 | 1008.3 |
| 20260905034600 | 63 | 257 | 0.0 | 0.9 | 0.00 | 0.00 | 0.00 | 84 | 1008.3 |
| 20260905034055 | 63 | 257 | 0.0 | 1.7 | 0.00 | 0.00 | 0.00 | 84 | 1008.3 |
| 20260905033554 | 63 | 257 | 0.0 | 1.7 | 0.00 | 0.00 | 0.00 | 84 | 1008.4 |
| 20260905033053 | 63 | 257 | 0.9 | 3.5 | 0.00 | 0.00 | 0.00 | 84 | 1008.4 |
| 20260905032555 | 63 | 260 | 1.7 | 3.5 | 0.00 | 0.00 | 0.00 | 83 | 1008.5 |
| 20260905032051 | 64 | 216 | 0.9 | 2.6 | 0.00 | 0.00 | 0.00 | 83 | 1008.4 |
| 20260905031551 | 64 | 216 | 0.9 | 1.7 | 0.00 | 0.00 | 0.00 | 82 | 1008.5 |
| 20260905031054 | 64 | 216 | 0.0 | 1.7 | 0.00 | 0.00 | 0.00 | 82 | 1008.4 |
| 20260905030553 | 64 | 216 | 0.0 | 0.0 | 0.00 | 0.00 | 0.00 | 81 | 1008.5 |
| 20260905030056 | 64 | 216 | 0.0 | 0.9 | 0.00 | 0.00 | 0.00 | 81 | 1008.6 |
| 20260905025552 | 64 | 216 | 0.0 | 0.9 | 0.00 | 0.00 | 0.00 | 81 | 1008.5 |
| 20260905025051 | 64 | 216 | 0.0 | 1.7 | 0.00 | 0.00 | 0.00 | 81 | 1008.6 |
| 20260905024550 | 65 | 219 | 0.0 | 1.7 | 0.00 | 0.00 | 0.00 | 80 | 1008.6 |
| 20260905024050 | 65 | 216 | 0.0 | 1.7 | 0.00 | 0.00 | 0.00 | 80 | 1008.6 |
| 20260905023549 | 65 | 216 | 0.0 | 0.9 | 0.00 | 0.00 | 0.00 | 80 | 1008.6 |
| 20260905023050 | 65 | 216 | 0.0 | 0.9 | 0.00 | 0.00 | 0.00 | 80 | 1008.7 |
| 20260905022548 | 65 | 216 | 0.0 | 0.0 | 0.00 | 0.00 | 0.00 | 80 | 1008.7 |
| 20260905022050 | 65 | 216 | 0.0 | 0.9 | 0.00 | 0.00 | 0.00 | 80 | 1008.7 |
| 20260905021552 | 65 | 216 | 0.0 | 1.7 | 0.00 | 0.00 | 0.00 | 79 | 1008.8 |
| 20260905021051 | 65 | 216 | 0.0 | 1.7 | 0.00 | 0.00 | 0.00 | 79 | 1008.9 |
| 20260905020551 | 66 | 216 | 0.9 | 1.7 | 0.00 | 0.00 | 0.00 | 79 | 1008.8 |
| 20260905020052 | 66 | 216 | 0.0 | 1.7 | 0.00 | 0.00 | 0.00 | 79 | 1008.9 |
| 20260905015547 | 66 | 216 | 0.0 | 0.9 | 0.00 | 0.00 | 0.00 | 79 | 1008.9 |
| 20260905015047 | 66 | 216 | 0.0 | 1.7 | 0.00 | 0.00 | 0.00 | 78 | 1008.9 |
| 20260905014547 | 66 | 216 | 0.0 | 2.6 | 0.00 | 0.00 | 0.00 | 78 | 1008.8 |
| 20260905014047 | 66 | 216 | 0.9 | 2.6 | 0.00 | 0.00 | 0.00 | 77 | 1008.9 |
| 20260905013547 | 67 | 265 | 0.0 | 0.9 | 0.00 | 0.00 | 0.00 | 77 | 1008.9 |
| 20260905013046 | 67 | 265 | 0.0 | 0.9 | 0.00 | 0.00 | 0.00 | 76 | 1009.0 |
| 20260905012546 | 67 | 265 | 0.0 | 0.0 | 0.00 | 0.00 | 0.00 | 75 | 1009.0 |
| 20260905012046 | 67 | 265 | 0.0 | 1.7 | 0.00 | 0.00 | 0.00 | 75 | 1009.0 |
| 20260905011609 | 67 | 265 | 0.0 | 3.5 | 0.00 | 0.00 | 0.00 | 75 | 1008.9 |
| 20260905011045 | 67 | 298 | 0.0 | 3.5 | 0.00 | 0.00 | 0.00 | 74 | 1008.8 |
| 20260905010546 | 67 | 247 | 0.0 | 2.6 | 0.00 | 0.00 | 0.00 | 74 | 1008.9 |
| 20260905010046 | 68 | 247 | 0.0 | 1.7 | 0.00 | 0.00 | 0.00 | 74 | 1008.9 |
| 20260905005545 | 68 | 247 | 0.0 | 1.7 | 0.00 | 0.00 | 0.00 | 74 | 1008.9 |
| 20260905005046 | 68 | 75 | 0.9 | 1.7 | 0.00 | 0.00 | 0.00 | 74 | 1008.8 |
| 20260905004546 | 68 | 355 | 0.0 | 4.3 | 0.00 | 0.00 | 0.00 | 73 | 1008.7 |
| 20260905004045 | 68 | 229 | 0.0 | 5.2 | 0.00 | 0.00 | 0.00 | 73 | 1008.6 |
| 20260905003544 | 68 | 219 | 0.9 | 3.5 | 0.00 | 0.00 | 0.00 | 72 | 1008.6 |
| 20260905003050 | 68 | 219 | 0.9 | 4.3 | 0.00 | 0.00 | 0.00 | 71 | 1008.5 |
| 20260905002545 | 68 | 265 | 1.7 | 6.1 | 0.00 | 0.00 | 0.00 | 71 | 1008.6 |
| 20260905002043 | 69 | 267 | 2.6 | 6.1 | 0.00 | 0.00 | 0.00 | 70 | 1008.5 |
| 20260905001546 | 69 | 306 | 1.7 | 5.2 | 0.00 | 0.00 | 0.00 | 71 | 1008.6 |
| 20260905001042 | 69 | 238 | 1.7 | 3.5 | 0.00 | 0.00 | 0.00 | 70 | 1008.6 |
| 20260905000542 | 69 | 240 | 1.7 | 3.5 | 0.00 | 0.00 | 0.00 | 70 | 1008.6 |
| 20260905000044 | 70 | 227 | 0.9 | 3.5 | 0.00 | 0.00 | 0.00 | 70 | 1008.5 |
| 20260904235542 | 70 | 265 | 1.7 | 3.5 | 0.00 | 0.00 | 0.00 | 69 | 1008.6 |
| 20260904235041 | 70 | 217 | 0.9 | 5.2 | 0.00 | 0.00 | 0.00 | 69 | 1008.5 |
| 20260904234541 | 70 | 268 | 0.9 | 6.1 | 0.00 | 0.00 | 0.00 | 68 | 1008.5 |
| 20260904234041 | 70 | 286 | 3.5 | 6.1 | 0.00 | 0.00 | 0.00 | 67 | 1008.4 |
| 20260904233540 | 70 | 244 | 2.6 | 5.2 | 0.00 | 0.00 | 0.00 | 67 | 1008.3 |
| 20260904233052 | 70 | 254 | 2.6 | 7.8 | 0.00 | 0.00 | 0.00 | 66 | 1008.2 |
| 20260904232539 | 71 | 256 | 2.6 | 7.8 | 0.00 | 0.00 | 0.00 | 66 | 1008.2 |
| 20260904232038 | 71 | 223 | 1.7 | 6.1 | 0.00 | 0.00 | 0.00 | 65 | 1008.2 |
| 20260904231538 | 71 | 309 | 2.6 | 6.1 | 0.00 | 0.00 | 0.00 | 65 | 1008.3 |
| 20260904231038 | 71 | 355 | 1.7 | 6.1 | 0.00 | 0.00 | 0.00 | 66 | 1008.3 |
| 20260904230539 | 72 | 181 | 0.9 | 5.2 | 0.00 | 0.00 | 0.00 | 65 | 1008.2 |
| 20260904230042 | 72 | 309 | 1.7 | 4.3 | 0.00 | 0.00 | 0.00 | 64 | 1008.2 |
| 20260904225537 | 72 | 243 | 1.7 | 4.3 | 0.00 | 0.00 | 0.00 | 64 | 1008.1 |
| 20260904225039 | 72 | 246 | 2.6 | 5.2 | 0.00 | 0.00 | 0.00 | 63 | 1008.1 |
| 20260904224538 | 72 | 341 | 1.7 | 5.2 | 0.00 | 0.00 | 0.00 | 64 | 1008.1 |
| 20260904224037 | 73 | 271 | 1.7 | 5.2 | 0.00 | 0.00 | 0.00 | 64 | 1008.0 |
| 20260904223535 | 73 | 277 | 0.9 | 5.2 | 0.00 | 0.00 | 0.00 | 64 | 1008.1 |
| 20260904223037 | 73 | 299 | 0.9 | 6.1 | 0.00 | 0.00 | 0.00 | 65 | 1008.0 |
| 20260904222535 | 74 | 294 | 0.9 | 6.1 | 0.00 | 0.00 | 0.00 | 63 | 1008.0 |
| 20260904222035 | 74 | 298 | 1.7 | 5.2 | 0.00 | 0.00 | 0.00 | 65 | 1008.0 |
| 20260904221539 | 74 | 284 | 2.6 | 5.2 | 0.00 | 0.00 | 0.00 | 63 | 1008.0 |
| 20260904221035 | 75 | 249 | 1.7 | 5.2 | 0.00 | 0.00 | 0.00 | 62 | 1007.9 |
| 20260904220534 | 75 | 265 | 2.6 | 5.2 | 0.00 | 0.00 | 0.00 | 60 | 1007.9 |
| 20260904220037 | 76 | 244 | 1.7 | 4.3 | 0.00 | 0.00 | 0.00 | 60 | 1007.9 |
| 20260904215538 | 76 | 328 | 1.7 | 8.7 | 0.00 | 0.00 | 0.00 | 61 | 1007.9 |
| 20260904215034 | 76 | 200 | 0.9 | 8.7 | 0.00 | 0.00 | 0.00 | 59 | 1007.9 |
| 20260904214534 | 77 | 272 | 2.6 | 7.0 | 0.00 | 0.00 | 0.00 | 57 | 1007.9 |
| 20260904214035 | 77 | 290 | 2.6 | 9.6 | 0.00 | 0.00 | 0.00 | 56 | 1007.8 |
| 20260904213535 | 77 | 235 | 3.5 | 9.6 | 0.00 | 0.00 | 0.00 | 57 | 1007.9 |
| 20260904213033 | 77 | 241 | 0.9 | 8.7 | 0.00 | 0.00 | 0.00 | 61 | 1007.9 |
| 20260904212533 | 77 | 227 | 1.7 | 4.3 | 0.00 | 0.00 | 0.00 | 59 | 1007.9 |
| 20260904212032 | 77 | 232 | 1.7 | 4.3 | 0.00 | 0.00 | 0.00 | 59 | 1007.9 |
| 20260904211532 | 78 | 251 | 0.9 | 4.3 | 0.00 | 0.00 | 0.00 | 60 | 1007.9 |
| 20260904211032 | 78 | 304 | 0.9 | 7.0 | 0.00 | 0.00 | 0.00 | 58 | 1007.9 |
| 20260904210532 | 78 | 271 | 1.7 | 5.2 | 0.00 | 0.00 | 0.00 | 58 | 1007.9 |
| 20260904210032 | 78 | 311 | 2.6 | 5.2 | 0.00 | 0.00 | 0.00 | 57 | 1007.8 |
| 20260904205536 | 78 | 284 | 1.7 | 5.2 | 0.00 | 0.00 | 0.00 | 58 | 1007.8 |
| 20260904205033 | 78 | 61 | 0.9 | 5.2 | 0.00 | 0.00 | 0.00 | 56 | 1007.8 |
| 20260904204533 | 79 | 250 | 1.7 | 7.0 | 0.00 | 0.00 | 0.00 | 55 | 1007.9 |
| 20260904204031 | 79 | 323 | 3.5 | 7.8 | 0.00 | 0.00 | 0.00 | 54 | 1007.9 |
| 20260904203530 | 79 | 271 | 3.5 | 7.8 | 0.00 | 0.00 | 0.00 | 56 | 1008.0 |
| 20260904203040 | 79 | 315 | 3.5 | 7.0 | 0.00 | 0.00 | 0.00 | 55 | 1007.9 |
| 20260904202530 | 79 | 313 | 1.7 | 7.8 | 0.00 | 0.00 | 0.00 | 56 | 1007.9 |
| 20260904202029 | 79 | 247 | 2.6 | 7.8 | 0.00 | 0.00 | 0.00 | 55 | 1007.9 |
| 20260904201536 | 80 | 252 | 2.6 | 7.8 | 0.00 | 0.00 | 0.00 | 56 | 1007.9 |
| 20260904201032 | 80 | 360 | 0.9 | 8.7 | 0.00 | 0.00 | 0.00 | 58 | 1007.9 |
| 20260904200529 | 80 | 285 | 3.5 | 8.7 | 0.00 | 0.00 | 0.00 | 57 | 1007.8 |
| 20260904200031 | 79 | 315 | 1.7 | 6.1 | 0.00 | 0.00 | 0.00 | 60 | 1007.8 |
| 20260904195528 | 79 | 257 | 3.5 | 7.8 | 0.00 | 0.00 | 0.00 | 57 | 1007.9 |
| 20260904195026 | 79 | 313 | 3.5 | 7.8 | 0.00 | 0.00 | 0.00 | 59 | 1007.9 |
| 20260904194528 | 79 | 237 | 2.6 | 5.2 | 0.00 | 0.00 | 0.00 | 58 | 1007.9 |
| 20260904194030 | 79 | 237 | 1.7 | 9.6 | 0.00 | 0.00 | 0.00 | 55 | 1007.9 |
| 20260904193523 | 79 | 261 | 4.3 | 9.6 | 0.00 | 0.00 | 0.00 | 55 | 1008.0 |
| 20260904193025 | 79 | 228 | 4.3 | 9.6 | 0.00 | 0.00 | 0.00 | 54 | 1008.0 |
| 20260904192527 | 80 | 282 | 4.3 | 9.6 | 0.00 | 0.00 | 0.00 | 53 | 1008.0 |
| 20260904192025 | 80 | 261 | 5.2 | 9.6 | 0.00 | 0.00 | 0.00 | 57 | 1008.0 |
| 20260904191524 | 80 | 310 | 1.7 | 10.4 | 0.00 | 0.00 | 0.00 | 56 | 1008.0 |
| 20260904191025 | 80 | 276 | 4.3 | 10.4 | 0.00 | 0.00 | 0.00 | 54 | 1008.1 |
| 20260904190522 | 80 | 355 | 4.3 | 11.3 | 0.00 | 0.00 | 0.00 | 56 | 1008.0 |
| 20260904190020 | 80 | 360 | 4.3 | 11.3 | 0.00 | 0.00 | 0.00 | 56 | 1008.0 |